Regional Weather Roundup
Issued by NWS Goodland, KS

Home | Current Version | Previous Version | Graphics & Text | Print | Product List | Glossary On
Versions: 1 2 3 4 5 6 7 8 9 10 11 12 13 14 15 16 17 18 19 20 21 22 23 24 25 26 27 28 29 30 31 32 33 34 35 36 37 38 39 40 41 42 43 44 45 46 47 48 49 50
000
ASUS43 KGLD 191959
RWRGLD

GOODLAND FORECAST AREA HOURLY WEATHER ROUNDUP
NATIONAL WEATHER SERVICE GOODLAND KS
100 PM MST SUN NOV 19 2017

...OFFICIAL OBSERVATIONS...

CITY           SKY/WX    TMP DP  RH WIND       PRES   REMARKS
GOODLAND KS    CLOUDY    58  17  20 SW12      30.04F
HILL CITY KS   SUNNY     59  20  22 SW16      30.06F
IMPERIAL NEB   SUNNY     60  18  19 SW10      30.01F
MCCOOK NEB     SUNNY     59  22  24 SW10      30.02F
AKRON CO       CLOUDY    57  18  21 SW12      30.03F
BURLINGTON CO  CLOUDY    58  16  19 SW15      30.06F
LIMON CO       SUNNY     59   1   9 S9        30.05F
$$

...UNOFFICIAL OBSERVATIONS...

CITY           SKY/WX    TMP DP  RH WIND       PRES   REMARKS
LENORA KS        N/A     58  32  37 SW10        N/A
NORTON KS      SUNNY     57  10  15 S13G21    30.03
SHARON SPRINGS   N/A     60  19  20 S12         N/A
TRENTON NEB      N/A     58  32  37 W6          N/A
KIT CARSON CO    N/A     56  22  26 MISG        N/A
YUMA CO        FAIR      57  19  23 SW10      30.02F
$$




USA.gov is the U.S. government's official web portal to all federal, state and local government web resources and services.